Location: Gebenbach
(49.5378°N, 11.8735°E)
Time: 02:59:43
(UTC+00:00)

CZ-4B R/B - Pass Details

Date: 29 October 2020
Orbit: 388 x 462 km, 97.6° (Epoch: 27 November)

Event Time Altitude Azimuth Distance (km) Brightness Sun altitude
Rises 17:05:52 0° 11° (N) 2,398 4.9 -12.0°
Reaches altitude 10° 17:07:55 10° 10° (N) 1,513 3.9 -12.3°
Maximum altitude 17:11:08 71° 285° (WNW) 440 1.5 -12.8°
Drops below altitude 10° 17:14:14 10° 202° (SSW) 1,461 4.4 -13.3°
Sets 17:16:10 0° 200° (SSW) 2,304 5.4 -13.6°
